When you browse on this site, cookies collect data to enhance your experience and personalize the content and advertising you see.
Visit our Privacy Policy to learn more. By continuing to use the site, you agree to this use of cookies and data.
  • en France
  • Liste des pays
  • À 7 jours
  • Température de l'eau
  • Carte météo
  • Widgets météo
  • user-avatar
    Se connecter

    Météo par heure à Molouprei

    Ce jour, 10 Avril, Vendredi

    Heure Température Précipitation Vent Pression Humidité
    00:00 +30°C° 0.1 mm 2 m/s 758 mmHg 73%
    01:00 +30°C° 0 mm 1 m/s 757 mmHg 71%
    02:00 +29°C° 0.1 mm 2 m/s 757 mmHg 74%
    03:00 +29°C° 0.1 mm 2 m/s 757 mmHg 76%
    04:00 +29°C° 0.1 mm 2 m/s 757 mmHg 78%
    05:00 +29°C° 0.2 mm 2 m/s 758 mmHg 77%
    06:00 +29°C° 0.2 mm 2 m/s 758 mmHg 76%
    07:00 +29°C° 0.2 mm 2 m/s 758 mmHg 75%
    08:00 +30°C° 0.1 mm 2 m/s 759 mmHg 69%
    09:00 +32°C° 0.1 mm 2 m/s 759 mmHg 62%
    10:00 +35°C° 0.1 mm 3 m/s 760 mmHg 56%
    11:00 +36°C° 0.1 mm 3 m/s 759 mmHg 52%
    12:00 +36°C° 0.1 mm 3 m/s 758 mmHg 49%
    13:00 +37°C° 0.1 mm 3 m/s 757 mmHg 46%
    14:00 +37°C° 0 mm 3 m/s 757 mmHg 46%
    15:00 +37°C° 0 mm 3 m/s 756 mmHg 47%
    16:00 +37°C° 0 mm 4 m/s 755 mmHg 47%
    17:00 +35°C° 0.2 mm 4 m/s 756 mmHg 52%
    18:00 +34°C° 0.2 mm 3 m/s 756 mmHg 56%
    19:00 +33°C° 0.2 mm 3 m/s 757 mmHg 61%
    20:00 +31°C° 0.1 mm 3 m/s 757 mmHg 62%
    21:00 +31°C° 0.1 mm 2 m/s 758 mmHg 63%
    22:00 +30°C° 0.1 mm 2 m/s 758 mmHg 64%
    23:00 +30°C° 0 mm 2 m/s 758 mmHg 66%

    Demain, 11 Avril, Samedi

    Heure Température Précipitation Vent Pression Humidité
    00:00 +30°C° 0 mm 2 m/s 758 mmHg 69%
    01:00 +30°C° 0 mm 2 m/s 757 mmHg 71%
    02:00 +29°C° 0 mm 2 m/s 757 mmHg 73%
    03:00 +29°C° 0 mm 2 m/s 757 mmHg 76%
    04:00 +29°C° 0 mm 2 m/s 757 mmHg 79%
    05:00 +29°C° 0 mm 1 m/s 757 mmHg 78%
    06:00 +29°C° 0 mm 1 m/s 758 mmHg 78%
    07:00 +29°C° 0 mm 1 m/s 758 mmHg 77%
    08:00 +31°C° 0 mm 1 m/s 758 mmHg 69%
    09:00 +33°C° 0 mm 1 m/s 759 mmHg 62%
    10:00 +35°C° 0 mm 1 m/s 759 mmHg 54%
    11:00 +36°C° 0 mm 1 m/s 758 mmHg 49%
    12:00 +37°C° 0 mm 1 m/s 757 mmHg 44%
    13:00 +40°C° 0 mm 1 m/s 757 mmHg 40%
    14:00 +40°C° 0 mm 1 m/s 756 mmHg 38%
    15:00 +40°C° 0 mm 1 m/s 755 mmHg 37%
    16:00 +40°C° 0 mm 1 m/s 755 mmHg 36%
    17:00 +37°C° 0 mm 1 m/s 755 mmHg 40%
    18:00 +37°C° 0 mm 2 m/s 756 mmHg 44%
    19:00 +36°C° 0 mm 2 m/s 756 mmHg 48%
    20:00 +35°C° 0 mm 2 m/s 756 mmHg 53%
    21:00 +34°C° 0 mm 3 m/s 757 mmHg 57%
    22:00 +33°C° 0 mm 3 m/s 757 mmHg 62%
    23:00 +33°C° 0 mm 3 m/s 757 mmHg 65%

    Après-demain, 12 Avril, Dimanche

    Heure Température Précipitation Vent Pression Humidité
    00:00 +31°C° 0 mm 2 m/s 757 mmHg 68%
    01:00 +31°C° 0 mm 2 m/s 757 mmHg 71%
    02:00 +30°C° 0 mm 2 m/s 756 mmHg 72%
    03:00 +30°C° 0 mm 2 m/s 756 mmHg 74%
    04:00 +30°C° 0 mm 2 m/s 756 mmHg 75%
    05:00 +30°C° 0 mm 2 m/s 756 mmHg 75%
    06:00 +30°C° 0 mm 1 m/s 757 mmHg 74%
    07:00 +30°C° 0 mm 1 m/s 757 mmHg 74%
    08:00 +32°C° 0 mm 1 m/s 758 mmHg 66%
    09:00 +34°C° 0 mm 1 m/s 758 mmHg 59%
    10:00 +36°C° 0 mm 1 m/s 758 mmHg 51%
    11:00 +37°C° 0 mm 1 m/s 758 mmHg 47%
    12:00 +39°C° 0 mm 1 m/s 757 mmHg 42%
    13:00 +40°C° 0 mm 2 m/s 756 mmHg 37%
    14:00 +40°C° 0 mm 2 m/s 756 mmHg 38%
    15:00 +39°C° 0 mm 3 m/s 755 mmHg 39%
    16:00 +39°C° 0 mm 3 m/s 754 mmHg 40%
    17:00 +37°C° 0.5 mm 3 m/s 755 mmHg 46%
    18:00 +36°C° 0.5 mm 2 m/s 755 mmHg 52%
    19:00 +34°C° 0.5 mm 2 m/s 756 mmHg 59%
    20:00 +32°C° 0.6 mm 2 m/s 756 mmHg 64%
    21:00 +31°C° 0.6 mm 2 m/s 757 mmHg 69%
    22:00 +30°C° 0.6 mm 1 m/s 757 mmHg 74%
    23:00 +30°C° 1.8 mm 2 m/s 757 mmHg 74%

    13 Avril, Lundi

    Heure Température Précipitation Vent Pression Humidité
    00:00 +30°C° 1.8 mm 3 m/s 757 mmHg 75%
    01:00 +30°C° 1.8 mm 4 m/s 757 mmHg 75%
    02:00 +29°C° 1.3 mm 4 m/s 757 mmHg 76%
    03:00 +28°C° 1.3 mm 4 m/s 757 mmHg 77%
    04:00 +28°C° 1.3 mm 4 m/s 757 mmHg 78%
    05:00 +27°C° 0.4 mm 4 m/s 757 mmHg 79%
    06:00 +27°C° 0.4 mm 4 m/s 758 mmHg 79%
    07:00 +27°C° 0.4 mm 4 m/s 758 mmHg 80%
    08:00 +29°C° 0 mm 3 m/s 759 mmHg 74%
    09:00 +30°C° 0 mm 3 m/s 759 mmHg 67%
    10:00 +33°C° 0 mm 3 m/s 759 mmHg 61%
    11:00 +33°C° 0 mm 3 m/s 759 mmHg 58%
    12:00 +34°C° 0 mm 3 m/s 758 mmHg 54%
    13:00 +35°C° 0 mm 3 m/s 758 mmHg 51%
    14:00 +34°C° 0.9 mm 3 m/s 757 mmHg 56%
    15:00 +33°C° 0.9 mm 3 m/s 757 mmHg 60%
    16:00 +31°C° 0.9 mm 3 m/s 756 mmHg 65%
    17:00 +30°C° 0.9 mm 2 m/s 756 mmHg 68%
    18:00 +29°C° 0.9 mm 2 m/s 756 mmHg 71%
    19:00 +29°C° 0.9 mm 1 m/s 757 mmHg 75%
    20:00 +29°C° 0 mm 1 m/s 757 mmHg 74%
    21:00 +29°C° 0 mm 1 m/s 758 mmHg 73%
    22:00 +29°C° 0 mm 1 m/s 758 mmHg 72%
    23:00 +29°C° 0 mm 1 m/s 758 mmHg 72%

    14 Avril, Mardi

    Heure Température Précipitation Vent Pression Humidité
    00:00 +29°C° 0 mm 1 m/s 758 mmHg 72%
    01:00 +27°C° 0 mm 0 m/s 757 mmHg 72%
    02:00 +28°C° 0.2 mm 1 m/s 757 mmHg 73%
    03:00 +28°C° 0.2 mm 1 m/s 757 mmHg 75%
    04:00 +28°C° 0.2 mm 1 m/s 757 mmHg 77%
    05:00 +27°C° 0.1 mm 2 m/s 757 mmHg 77%
    06:00 +27°C° 0.1 mm 2 m/s 758 mmHg 77%
    07:00 +27°C° 0.1 mm 3 m/s 758 mmHg 77%
    08:00 +29°C° 0 mm 3 m/s 758 mmHg 69%
    09:00 +30°C° 0 mm 3 m/s 759 mmHg 62%
    10:00 +33°C° 0 mm 3 m/s 759 mmHg 54%
    11:00 +33°C° 0 mm 3 m/s 759 mmHg 51%
    12:00 +34°C° 0 mm 3 m/s 758 mmHg 49%
    13:00 +35°C° 0 mm 2 m/s 757 mmHg 47%
    14:00 +35°C° 0 mm 2 m/s 757 mmHg 47%
    15:00 +35°C° 0 mm 2 m/s 757 mmHg 46%
    16:00 +35°C° 0 mm 2 m/s 756 mmHg 46%
    17:00 +34°C° 0 mm 2 m/s 757 mmHg 49%
    18:00 +32°C° 0 mm 2 m/s 757 mmHg 53%
    19:00 +31°C° 0 mm 1 m/s 757 mmHg 56%
    20:00 +31°C° 0 mm 1 m/s 758 mmHg 56%
    21:00 +31°C° 0 mm 1 m/s 758 mmHg 56%
    22:00 +30°C° 0 mm 1 m/s 759 mmHg 57%
    23:00 +30°C° 0 mm 1 m/s 758 mmHg 58%

    15 Avril, Mercredi

    Heure Température Précipitation Vent Pression Humidité
    00:00 +30°C° 0 mm 1 m/s 758 mmHg 60%
    01:00 +30°C° 0 mm 1 m/s 757 mmHg 62%
    02:00 +29°C° 0 mm 1 m/s 757 mmHg 65%
    03:00 +29°C° 0 mm 1 m/s 757 mmHg 67%
    04:00 +29°C° 0 mm 1 m/s 757 mmHg 70%
    05:00 +29°C° 0 mm 1 m/s 757 mmHg 69%
    06:00 +27°C° 0 mm 0 m/s 758 mmHg 69%
    07:00 +27°C° 0 mm 0 m/s 758 mmHg 69%
    08:00 +31°C° 0 mm 1 m/s 758 mmHg 63%
    09:00 +32°C° 0 mm 1 m/s 759 mmHg 58%
    10:00 +33°C° 0 mm 1 m/s 759 mmHg 52%
    11:00 +34°C° 0 mm 1 m/s 758 mmHg 49%
    12:00 +36°C° 0 mm 1 m/s 757 mmHg 46%
    13:00 +35°C° 0 mm 0 m/s 757 mmHg 42%
    14:00 +36°C° 0 mm 1 m/s 756 mmHg 42%
    15:00 +36°C° 0 mm 1 m/s 756 mmHg 42%
    16:00 +36°C° 0 mm 1 m/s 756 mmHg 42%
    17:00 +35°C° 0 mm 1 m/s 756 mmHg 45%
    18:00 +34°C° 0 mm 1 m/s 756 mmHg 49%
    19:00 +33°C° 0 mm 1 m/s 756 mmHg 53%
    20:00 +32°C° 0 mm 1 m/s 757 mmHg 54%
    21:00 +32°C° 0 mm 1 m/s 757 mmHg 56%
    22:00 +32°C° 0 mm 1 m/s 758 mmHg 58%
    23:00 +31°C° 0 mm 1 m/s 757 mmHg 61%
    Voir plus